Location: Waldport
(44.4270°N, 124.0680°W)
Time: 08:43:14
(UTC-08:00)

ISS - Visible Passes

Search period start: 19 February 2019 00:00
Search period end: 01 March 2019 00:00
Orbit: 403 x 411 km, 51.6° (Epoch: 20 February)

Date Brightness Start Highest point End Pass type
(mag) Time Alt. Az. Time Alt. Az. Time Alt. Az.
22 Feb -0.9 06:05:41 10° S 06:07:49 16° SE 06:09:56 10° E visible
24 Feb -2.4 05:58:04 10° SSW 06:01:06 36° SE 06:04:09 10° ENE visible
25 Feb -1.6 05:08:29 17° SSE 05:09:45 21° SE 05:12:18 10° E visible
26 Feb -0.5 04:19:28 11° ESE 04:19:28 11° ESE 04:19:44 10° ESE visible
26 Feb -3.8 05:52:11 18° SW 05:54:30 84° SE 05:57:47 10° ENE visible
27 Feb -3.1 05:03:00 47° SE 05:03:01 47° SE 05:06:12 10° ENE visible
28 Feb -0.6 04:13:42 14° E 04:13:42 14° E 04:14:25 10° E visible
28 Feb -3.4 05:46:24 25° W 05:47:59 48° NNW 05:51:12 10° NE visible
